Volver al catálogo

USA 119

ActivoMilitarLEO
NORAD 23893·PAYLOAD·🇺🇸 United States

Lanzado May 12, 1996 desde Vandenberg Space Force Base

Loading…

Próximos Pases (próximas 24 horas)

TLE

ActualizadoSource: Space-Track

Época: Sep 14, 2026, 11:05 UTC

1 23893U 96029A   26257.46204430  .00000634  00000-0  11848-3 0  9994
2 23893  63.3188 318.3777 0855678  50.5998 316.7679 13.46500670117298

Sigue USA 119 en tiempo real con AllMySat

Download on the App Store